THOR ABLESTAR DEB, 465

Orbit data source: Space-Track

THOR ABLESTAR DEB, 465 is space debris in LEO originally from a launch on Thu, 29 Jun 1961 UTC launched from the Air Force Eastern Test Range (AFETR). Debris objects in space refer to the collection of defunct objects orbiting the Earth. Examples of debris include non-operational satellites, rocket bodies, and fragments generated from explosions, collisions, or faulty payload assembly.

Loading next visibility...
Identifier
465, 1961-015FB
Orbit
LEO
Last TLE update
9 hours ago
Origin
Manufacturer
Unknown
Mission
Spacecraft
Bus & Motor
Unknown
Mass
Unknown
Launch date (UTC)
1961-06-29 (64 years ago)
Launch vehicle
Unknown
Launch site
Air Force Eastern Test Range (AFETR)
Object type
Payload
Rocket body
Debris
Shape & HBR
Unknown
Radar Cross Section
Small (<0.1 m²)

Expand to show TLE details & history

TLE from 9 hours ago
0 THOR ABLESTAR DEB
1 00465U 61015FB  25188.94332876  .00001590  00000-0  53764-3 0  9997
2 00465  66.3184 105.2303 0032660 191.8184 168.2153 14.39222424296532
Epoch: 2025-07-07T22:38Z
TLE epoch observation values (Epoch: 2025-07-07T22:38:23.604Z)
Latitude
-0.00005°
Longitude
-160.51349°
Altitude
785.986 km
Speed
7.449 km/s
True Right ascension
07h 00m 55s
True Declination
0° 00' 00"
Sunlit
Object was in daylight at epoch
Visualization orbit readout
Latitude
46.62732°
Longitude
-133.97609°
Altitude
784.986 km
Speed
7.457 km/s
Apparent Right ascension
08h 03m 05s
Apparent Declination
6° 35' 03"
Sunlit
Object is in daylight
Visualization observer readout
Local Sidereal Time
19:18:52
Azimuth
345.05° N
Elevation
-42.393°
Doppler factor
1
Orbital elements
Apogee altitude
782.793 km
Perigee altitude
736.17 km
Semi-major axis
7,137.619 km
Eccentricity
0.00327
Inclination
66.3184°
RAAN
105.2303°
Arg. of periapsis
191.8184°
True anomaly
Unknown
Mean anomaly
168.2153°
Eccentric anomaly
Unknown
Mean motion
3.59926 °/min
Orbital period
100.02 mins
BSTAR
0.00053764
Loading maneuver chart data...
Loading SW <> Apogee altitude chart data...

THOR ABLESTAR DEB Visibility forecast

Observer location: undefined°, undefined°

Span
Click to sort rows by Start time (UTC) header in descending order
Start Az.
Max El. time (UTC)
Max El. Az.
Max El.
End time (UTC)
End Az.
6 mins2025-07-08 18:47:20.961Z139.708° SSE2025-07-08 18:50:20.961Z100.519° ESE17.344°2025-07-08 18:53:20.961Z65.468° ENE
9 mins2025-07-08 20:28:20.961Z226.87° WSW2025-07-08 20:32:20.961Z305.494° NW40.581°2025-07-08 20:37:20.961Z22.147° NNE
4 mins2025-07-09 03:32:20.961Z20.835° NNE2025-07-09 03:34:20.961Z47.779° ENE15.648°2025-07-09 03:36:20.961Z73.075° E
9 mins2025-07-09 05:13:20.961Z327.89° NNW2025-07-09 05:17:20.961Z269.075° W44.616°2025-07-09 05:22:20.961Z155.566° SSE
|